Regional Weather Roundup
Issued by NWS Grand Forks, ND

Home | Current Version | Previous Version | Text Only | Print | Product List | Glossary On
Versions: 1 2 3 4 5 6 7 8 9 10 11 12 13 14 15 16 17 18 19 20 21 22 23 24 25 26 27 28 29 30 31 32 33 34 35 36 37 38 39 40 41 42 43 44 45 46 47 48 49 50
000
ASUS43 KFGF 241110
RWRFGF
PRAIRIE TO PINES  WEATHER ROUNDUP
NATIONAL WEATHER SERVICE EASTERN NORTH DAKOTA/GRAND FORKS ND
600 AM CDT THU JUL 24 2014

 **SATELLITE DATA USED TO AUGMENT SKY COVER AT AUTOMATED STATIONS**
 *****  WEATHER ACROSS EASTERN NORTH DAKOTA  *****

CITY           SKY/WX    TMP DP  RH WIND       PRES   REMARKS
GRAND FORKS    MOCLDY    59  56  89 S6        30.10S
GRAND FRKS AFB CLOUDY    59  58  99 S6        30.11S
GRAND FRKS NWS   N/A     59 N/A N/A SE3         N/A
DEVILS LAKE    PTCLDY    63  55  77 SE17      30.06F
FARGO          MOCLDY    63  58  83 SE5       30.10F
WAHPETON ARPT  MOSUNNY   59  54  82 SE7       30.11F
$$

 ***** WEATHER ACROSS CENTRAL AND WESTERN NORTH DAKOTA  *****

CITY           SKY/WX    TMP DP  RH WIND       PRES   REMARKS
BISMARCK       PTCLDY    65  56  72 SE9       29.96F
MINOT          MOCLDY    63  59  87 E14       29.95F
JAMESTOWN      PTCLDY    61  58  90 SE8       30.06F
MINOT AFB      MOCLDY    62  62  99 SE13      29.94F
GARRISON         N/A     64  58  80 E8        29.95F
WILLISTON      HVY RAIN  66  60  81 SW12G26   30.00R
DICKINSON      LGT RAIN  63  56  78 SE21G28   29.84F
HETTINGER      PTCLDY    65  57  75 SE17G26   29.85F
$$

 *****  OTHER AIRPORT OBSERVATIONS IN OUR AREA  *****

CITY           SKY/WX    TMP DP  RH WIND       PRES   REMARKS
WALHALLA         N/A     55  55 100 E3          N/A
GRAFTON AIRPOR FAIR      54  54 100 CALM      30.10S
VALLEY CITY AR FAIR      59  59 100 S5        30.09F
CANDO          FAIR      57  57 100 E9        30.07F
CAVALIER APRT  FAIR      55  54  94 S3        30.09F
GWINNER        SUNNY     63  63 100 SE7       30.10F
SHEYENNE NWR     N/A     57  56  97 SE5       29.95S
ROLLA          FAIR      57  57 100 SE9       30.07S
 ***** THE ABOVE OBSERVATIONS ARE NON NWS ARE NOT QUALITY
       CONTROLLED AND MAY MIS-REPORT RAIN FOR SNOW...
$$

  *****  WEATHER ACROSS NORTHERN MINNESOTA  *****

CITY           SKY/WX    TMP DP  RH WIND       PRES   REMARKS
FLAG ISLAND    PTCLDY    63  57  82 NW3       30.13F
WARROAD        NOT AVBL
ROSEAU         CLEAR     48  43  81 CALM      30.14S HAZE
HALLOCK        PTCLDY    59  54  82 SE8       30.09F
THF RVR FALLS  PTCLDY    55  52  88 E6        30.12F
BAUDETTE       PTCLDY    53  51  93 E3        30.16F
WASKISH        CLEAR     52  48  87 CALM      30.15F
CROOKSTON      MOCLDY    57  55  94 SE5         N/A
$$
  *****  WEATHER ACROSS CENTRAL AND WEST MINNESOTA  *****

CITY           SKY/WX    TMP DP  RH WIND       PRES   REMARKS
FOSSTON        MOCLDY    54  48  82 CALM      30.14F
BEMIDJI        FOG       50  50  99 CALM      30.14F VSB 3/4
PARK RAPIDS    PTCLDY    54  53  97 CALM      30.15F FOG
ELBOW LAKE     FAIR      61  56  84 SE5       30.13F
WADENA         PTCLDY    52  50  93 CALM      30.14F
DETROIT LAKES  PTCLDY    61  55  82 SE3       30.14F
MOORHEAD       MOCLDY    63  61  94 SE3       30.11F
FERGUS FALLS   PTCLDY    63  54  72 SE5       30.13S
MORRIS MN      PTCLDY    55  54  94 SE6       30.13S
STAPLES        PTCLDY    54  52  94 CALM      30.15F
$$
  *****  WEATHER ELSEWHERE ACROSS MINNESOTA  *****

CITY           SKY/WX    TMP DP  RH WIND       PRES   REMARKS
DULUTH         MOCLDY    56  51  84 CALM      30.19S
INTRNTL FALLS  PTCLDY    47  45  93 CALM      30.17S
ELY            CLEAR     43  41  93 CALM      30.19
CLOQUET        CLOUDY    55  52  88 CALM      30.18S
WHEATON        CLEAR     55  54  94 SE8       30.13F
BRAINERD       FOG       49  49 100 CALM      30.16F VSB 1
HIBBING        MOCLDY    44  42  93 NW3       30.19R FOG
ALEXANDRIA     CLEAR     58  55  90 SE6       30.16F
SAINT CLOUD    CLEAR     52  50  93 CALM      30.16S
MINNEAPOLIS    PTCLDY    63  57  81 CALM      30.16S
$$

  *****  WEATHER ACROSS SOUTH DAKOTA  *****

CITY           SKY/WX    TMP DP  RH WIND       PRES   REMARKS
SIOUX FALLS    PTCLDY    65  56  72 SE6       30.11F
BROOKINGS      NOT AVBL
WATERTOWN      CLEAR     61  52  72 SE6       30.10F
HURON          MOCLDY    65  55  70 SE10      30.08R THUNDER
SISSETON         N/A     57  56  96 S3        30.10F
ABERDEEN       PTCLDY    60  56  86 SE9       30.07F
MITCHELL       TSTM      64  61  90 E9        30.08R
PIERRE         CLOUDY    70  59  68 SE26G35   29.92F
MOBRIDGE       MOCLDY    68  58  70 SE22G29   29.93F
RAPID CITY     PTCLDY    65  63  93 SE9       29.89F
$$

  *****  SOME WEATHER IN NEARBY STATES *****

CITY           SKY/WX    TMP DP  RH WIND       PRES   REMARKS
GLASGOW MT     PTCLDY    67  63  87 E18       29.80F
GREAT FALLS MT CLEAR     59  53  80 N8        29.89R
CHEYENNE WY    MOCLDY    64  48  56 SW7       30.17F
SCOTTSBLUFF NE PTCLDY    67  64  90 E9        30.02S
OMAHA NE       PTCLDY    66  58  75 SE7       30.14R
DES MOINES IA  CLEAR     64  58  80 CALM      30.15R
DAVENPORT IA   CLEAR     54  52  93 E3        30.18S
CHICAGO IL     PTCLDY    57  50  77 N7        30.16R
EAU CLAIRE WI  MOCLDY    54  54 100 NE3       30.18S
LA CROSSE WI   PTCLDY    60  57  89 E5        30.18R
$$

  *****  SOME NATIONAL WEATHER *****

CITY           SKY/WX    TMP DP  RH WIND       PRES   REMARKS
LA GUARDIA NY  PTSUNNY   73  64  73 NW8       29.83R
RALEIGH NC     MOCLDY    75  72  90 W3        29.91R
ATLANTA GA     PTCLDY    72  69  90 SW6       29.99S
NEW ORLEANS LA PTCLDY    75  72  90 CALM      29.97R
OKLAHOMA CITY  PTCLDY    73  66  78 NE6       30.07R
ALBUQUERQUE NM PTCLDY    72  53  51 N6        30.31R
SALT LAKE CITY CLOUDY    86  43  22 SW15      29.99R
LOS ANGELES CA CLEAR     68  62  81 CALM      29.85F
BOISE ID       CLEAR     61  47  59 W10       30.08R
SEATTLE WA     LGT RAIN  57  51  80 S10       30.08R
$$

*** WEATHER ACROSS MANITOBA...SASKATCHEWAN AND ONTARIO ***
                ***ONTARIO***

CITY           SKY/WX    TMP DP  RH WIND       PRES   REMARKS
GERALDTON      MOCLDY    55  50  82 W5        30.07S
THUNDER BAY    PTCLDY    48  46  93 SW6       30.17R
SIOUX LOOKOUT  PTCLDY    45  45 100 CALM      30.14F
TORONTO        PTCLDY    59  48  67 N15       30.06S
BIG TROUT LK   MOCLDY    50  48  93 W5        29.99F
PICKLE LAKE    PTCLDY    59  48  67 W10       30.07
DRYDEN         CLEAR     52  50  93 SW6       30.15F
KENORA         MOCLDY    59  48  67 CALM      30.17S
$$
                *** MANITOBA***

CITY           SKY/WX    TMP DP  RH WIND       PRES   REMARKS
BRANDON        CLOUDY    59  54  82 E10       30.05F
DAUPHIN        CLOUDY    57  54  88 CALM      30.04F
ISLAND LAKE    PTCLDY    63  54  72 W7        30.05S
PILOT MOUND      N/A     55  52  88 SE8         N/A
THE PAS        PTCLDY    54  52  94 SE2       30.01F
THOMPSON       PTCLDY    48  48 100 W5        30.00F
WINNIPEG       MOCLDY    55  50  82 SE5       30.11F
LYNN LAKE      CLEAR     54  52  94 CALM      30.00F
CHURCHILL      MOCLDY    55  54  94 W6        29.94F
GILLAM         PTCLDY    50  50 100 SW3       29.95F
$$
                ***SASKATCHEWAN***

CITY           SKY/WX    TMP DP  RH WIND       PRES   REMARKS
ESTEVAN        CLOUDY    63  61  94 E9        29.92F THUNDER
KINDERSLEY     TSTM      63  59  88 NE23      29.82F
LLOYDMINSTER   CLOUDY    64  61  88 SE17G25   29.79S
PRINCE ALBERT  MOCLDY    61  59  94 E6        29.90F
REGINA         MOCLDY    63  61  94 SE7       29.93R
YORKTON        CLEAR     61  57  88 SE10      29.98S
N. BATTLEFORD  CLOUDY    64  63  94 E13G18    29.82F
LA RONGE       MOCLDY    64  55  72 SE9       29.92
SASKATOON      CLOUDY    66  63  88 SE12      29.86R
SWIFT CURRENT  CLOUDY    66  57  72 N20G25    29.80R
$$
NOTE: THESE ARE AUTOMATED STATIONS WITH LIMITED QUALITY CONTROL
      "FAIR" INDICATES FEW OR NO CLOUDS BELOW 12,000 FEET WITH NO
      SIGNIFICANT WEATHER AND/OR OBSTRUCTIONS TO VISIBILITY.
      SKY/WX - SKY CONDITION AND SIGNIFICANT WEATHER.
      TMP - AIR TEMPERATURE.    DP   - DEWPOINT TEMPERATURE.
      RH  - RELATIVE HUMIDITY.  PRES - PRESSURE.
      HX  - HEAT INDEX.         WCI  - WIND CHILL INDEX.
$



USA.gov is the U.S. government's official web portal to all federal, state and local government web resources and services.